Tracking 28096 objects as of 27-Sep-2023
HD Live streaming from Space Station
objects crossing your sky now

STARLINK-2465

Track STARLINK-2465 now!
10-day predictions
STARLINK-2465 is classified as:


NORAD ID: 48124
Int'l Code: 2021-027AJ
Perigee: 553.3 km
Apogee: 555.5 km
Inclination: 53.1 °
Period: 95.6 minutes
Semi major axis: 6925 km
RCS: Unknown
Launch date: April 7, 2021
Source: United States (US)
Launch site: AIR FORCE EASTERN TEST RANGE (AFETR)
Your satellite tracking list
Your tracking list is empty




NASA's NSSDC Master Catalog

Two Line Element Set (TLE):
1 48124U 21027AJ  23270.09476886 -.00003422  00000-0 -21097-3 0  9998
2 48124  53.0528 217.6040 0001565 124.4937 235.6200 15.06389366137715
Source of the keplerian elements: AFSPC